Tracking 19846 objects as of 18-Sep-2019
HD Live streaming from Space Station
objects crossing your sky now

FENGYUN 1C DEB

Track FENGYUN 1C DEB now!
10-day predictions


NORAD ID: 30516
Int'l Code: 1999-025AJE
Perigee: 824.3 km
Apogee: 843.5 km
Inclination: 99.0 °
Period: 101.4 minutes
Semi major axis: 7204 km
RCS: 0.0157 m2 (small)
Launch date: May 10, 1999
Source: People's Republic of China (PRC)
Launch site: Taiyaun Space Center, China (TSC)

Note: This is SATELLITE DEBRIS
aabbcc
Your satellite tracking list
Your tracking list is empty




NASA's NSSDC Master Catalog

Two Line Element Set (TLE):
1 30516U 99025AJE 19260.34632123 +.00000556 +00000-0 +28501-3 0  9997
2 30516 098.9570 299.4856 0013293 043.8111 013.8434 14.19582586652548
Source of the keplerian elements: AFSPC